Location: Boda
(47.1872°N, 9.5454°E)
Time: 08:51:19
(UTC+00:00)

COSMOS 2487 - Pass Details

Date: 14 May 2021
Orbit: 431 x 433 km, 74.7° (Epoch: 16 June)

Event Time Altitude Azimuth Distance (km) Brightness Sun altitude
Rises 00:10:11 0° 333° (NNW) 2,417 6.8 -23.1°
Reaches altitude 10° 00:12:18 10° 326° (NW) 1,544 5.6 -23.1°
Enters shadow 00:14:08 27° 308° (NW) 882 4.0 -23.0°
